Voltar ao catálogo

WEITONG-1 01

AtivoComunicaçõesSSO
NORAD 68202·PAYLOAD·🇨🇳 China
Este nome de satélite ainda não foi confirmado por fontes oficiais.

Lançado Mar 16, 2026 de Jiuquan Satellite Launch Center

Loading…

Próximas Passagens (próximas 24 horas)

TLE

AtualizadoSource: Space-Track

Época: Sep 14, 2026, 11:45 UTC

1 68202U 26052E   26257.49008391  .00004935  00000-0  28881-3 0  9990
2 68202  97.5259 331.0577 0011334  13.1533 346.9991 15.12249101 27546

Acompanhe WEITONG-1 01 em tempo real com AllMySat

Download on the App Store